Weather in Nizhny Zhirim

Russia / Republic of Buryatia     51°25′25″N   107°11′54″E
temp.,
°C
wind,
m/s
gust,
m/s
humid.,
%
clouds,
%
prec.,
mm/h
press.,
hPa
HPBL,
m
17 may, tue
tue1723:00+10wnw1152100 0.0 100910
02:00+9sw2253100 0.0 101011
05:00+11sw1149100 0.0 100910
08:00+16nw4841100 0.0 1010989
11:00+12sw258096 2.2 1012329
14:00+17wnw685999 2.4 10101230
17:00+19nw794399 0.4 10092233
20:00+15wnw225542 0.5 101013
18 may, wed
wed1823:00+13sw2258100 0.0 101228
02:00+10wsw22675 0.0 101311
05:00+9sw22735 0.0 101411
08:00+15wsw225215 0.0 1014300
11:00+21nnw573199 0.0 10132662
14:00+22nnw5628100 0.0 10122664
17:00+23nnw46277 0.0 10112641
20:00+19nne33420 0.0 101231
19 may, thu
thu1923:00+13s00545 0.0 101311
02:00+11wsw116082 0.0 101411
05:00+10s11705 0.0 101510
08:00+18sw12425 0.0 1014307
11:00+24wsw45285 0.0 10121517
14:00+27w462029 0.0 10103648
17:00+27nw561897 0.0 10093631
20:00+21nnw223287 0.0 100912
20 may, fri
fri2023:00+16ne014376 0.0 101011
02:00+14nnw014947 0.0 101011
05:00+12n115577 0.0 101011
08:00+19nne013866 0.0 1011230
11:00+25n012870 0.0 1009901
14:00+28nne1322100 0.0 10072323
17:00+28n34237 0.0 10062709
20:00+23n333710 0.0 100724
21 may, sat
sat2123:00+16nne11535 0.0 100911
02:00+15n116096 0.1 101011
05:00+15ene116797 0.3 101014
08:00+18n125374 0.3 1011325
11:00+23n1239100 0.0 1010973
14:00+26nne443298 0.0 10072667
17:00+23ese1342100 1.1 1007498
20:00+19n2255100 1.1 100811